Weather Service Report


834 
ASUS41 KBTV 171110
RWRBTV
VERMONT REGIONAL WEATHER ROUNDUP
NATIONAL WEATHER SERVICE BURLINGTON VT
700 AM EDT THU APR 17 2014

NOTE: "FAIR" INDICATES FEW OR NO CLOUDS BELOW 12,000 FEET WITH NO 
SIGNIFICANT WEATHER AND/OR OBSTRUCTIONS TO VISIBILITY.

* THESE REPORTS ARE NOT UNDER NWS QUALITY CONTROL AND/OR DO NOT
  REPORT WEATHER SUCH AS PRECIPITATION AND FOG.

VTZ001>019-171200-
_____VERMONT_____

  
CITY           SKY/WX    TMP DP  RH WIND       PRES   REMARKS
BURLINGTON     MOSUNNY   23  17  78 E5        30.74R                  
MONTPELIER     SUNNY     17  15  92 CALM      30.76R                  
MORRISVILLE    SUNNY     16  14  92 CALM      30.75R                  
ST. JOHNSBURY*   N/A     17  13  84 MISG      30.74R                  
LYNDONVILLE*   FAIR      15  11  85 CALM      30.72S                  
MIDDLEBURY*    FAIR      21  18  88 CALM      30.72R                  
RUTLAND*       SUNNY     21  18  86 CALM      30.71R                  
SPRINGFIELD    SUNNY     21  18  88 CALM      30.76R                  
HIGHGATE*      FAIR      24  17  74 E8        30.75R                  
NEWPORT*       FAIR      19  13  79 SW3       30.73R                  
BENNINGTON     SUNNY     26  15  63 VRB3      30.69R                  
SUTTON*          N/A     18 N/A N/A MISG        N/A                   

_____LAKE CHAMPLAIN_____

  
CITY           SKY/WX    TMP DP  RH WIND       PRES   REMARKS
COLCHESTER RF*   N/A     30  25  80 NW1         N/A                   
DIAMOND ISL*     N/A     32  21  64 S5          N/A                   

$$

NYZ007-026>031-035-052-083-171200-
_____NORTHERN NEW YORK_____

  
CITY           SKY/WX    TMP DP  RH WIND       PRES   REMARKS
PLATTSBURGH    SUNNY     21  18  88 CALM      30.74R                  
SARANAC LAKE   SUNNY     12   9  87 CALM      30.60R                  
MASSENA        SUNNY     22  19  89 CALM      30.72R                  
OGDENSBURG*    SUNNY     27  23  86 E6        30.69R                  
POTSDAM*       SUNNY     25  19  80 CALM      30.69R                  
WATERTOWN      SUNNY     25  18  74 E6        30.66R                  
FT DRUM        SUNNY     25  19  79 SE10      30.65R WCI  15          
ALBANY         PTSUNNY   26  18  71 N3        30.72R                  
GLENS FALLS    SUNNY    N/A N/A N/A N5        30.73R                  

$$
NHZ002-005-011-171200-
_____NEW HAMPSHIRE_____

  
CITY           SKY/WX    TMP DP  RH WIND       PRES   REMARKS
LEBANON        SUNNY     21  17  84 NE3       30.76R                  
KEENE          SUNNY     25  16  68 NE3       30.75R                  
MT WASHINGTON  MOSUNNY   19  -4  35 W10         N/A  WCI   8          
PLYMOUTH         N/A     21  20  94 CALM      30.78R                  
WHITEFIELD     SUNNY     13   9  84 CALM      30.72R                  

$$

_____REGIONAL QUEBEC LOCATIONS_____

  
CITY           SKY/WX    TMP DP  RH WIND       PRES   REMARKS
MONTREAL       MOSUNNY   28  18  64 SE5       30.75R                  
QUEBEC CITY    MOSUNNY   18  10  73 N5        30.78R                  
SHERBROOKE     SUNNY     14  10  85 NE5       30.75R                  

_____REGIONAL ONTARIO LOCATIONS_____

  
CITY           SKY/WX    TMP DP  RH WIND       PRES   REMARKS
OTTAWA         MOSUNNY   23  19  86 E6        30.69R                  

______KEY______
VSB  - VISIBILITY IN MILES
WCI  - WIND CHILL INDEX
HX   - HEAT INDEX
$$
NNNN

Return to Home page


Western Regional Climate Center, wrcc@dri.edu